Wind_Speed
4 4 3 1 3 5 7 6 6 9 12 16 18 20 21 22 22 22 21 21 20 19 20 20 21 22 23 24 26 28 29 30 31 32 34 36 38 39 40 41 41 41 41 41
6 4 3 3 4 5 7 8 8 9 9 13 16 18 19 21 21 19 19 19 16 16 16 18 19 21 22 24 26 27 28 30 32 34 35 37 39 40 41 42 42 43 43 42
8 5 4 4 6 7 7 8 9 9 9 11 15 18 19 17 19 17 15 13 11 11 13 15 17 19 20 22 24 26 28 31 33 34 36 37 39 41 42 43 43 43 43 42
9 6 4 5 5 7 6 7 7 9 11 13 13 13 13 12 11 10 9 9 8 9 11 13 15 18 20 22 24 27 29 31 33 35 37 38 40 41 42 43 43 43 42 42
8 6 5 5 6 6 6 8 8 8 9 10 10 9 7 6 7 7 7 6 5 8 10 13 15 18 20 22 24 26 28 31 33 35 36 38 39 40 41 42 42 42 41 41
7 6 5 6 8 8 8 8 8 8 9 10 8 7 4 3 5 5 5 6 8 10 12 14 17 19 21 23 25 28 30 31 33 35 36 37 38 39 39 40 40 40 39 39
7 7 7 6 7 6 8 9 8 8 9 11 11 11 10 9 8 8 8 10 11 12 14 17 20 23 25 27 29 31 32 34 35 36 37 38 38 38 39 38 38 38 38 37
8 7 7 6 7 7 7 8 8 9 9 9 10 11 11 10 9 9 11 12 14 16 19 22 24 26 29 31 33 34 36 37 38 38 39 39 39 39 39 39 39 39 39 38
10 9 9 7 7 7 7 7 8 8 8 8 9 10 12 11 11 13 14 16 18 21 23 26 28 30 32 35 36 38 39 39 39 39 39 39 39 39 39 39 39 40 40 40
10 9 8 8 8 8 8 8 8 8 9 9 10 12 15 14 15 16 17 20 22 24 27 29 31 33 35 37 39 40 41 41 41 40 40 39 39 39 40 40 40 40 40 41
9 8 7 8 7 7 7 8 9 9 11 12 14 16 17 17 18 20 22 24 26 28 29 31 33 35 38 39 41 42 42 42 41 41 41 40 40 41 41 41 41 41 42 42
8 7 6 6 5 5 6 9 10 11 12 14 17 18 19 21 23 24 25 26 27 28 30 32 35 38 39 40 41 42 42 41 41 41 41 41 41 42 42 42 42 42 42 43
7 7 7 5 4 5 7 9 11 12 13 16 18 20 21 23 24 25 25 26 27 29 32 34 37 39 40 41 41 41 41 41 41 41 42 42 42 42 42 42 42 42 42 43
6 7 6 6 7 7 7 9 11 13 14 16 18 20 22 23 24 24 25 27 29 31 34 36 38 39 40 41 41 41 41 41 42 42 42 42 42 42 42 41 41 41 42 43
5 6 7 7 8 8 9 9 12 14 16 18 20 22 23 24 24 25 26 28 30 33 35 37 39 40 41 42 42 42 42 42 43 43 43 43 43 42 42 41 41 41 42 43
4 5 6 7 8 9 10 11 13 15 18 20 22 24 24 24 25 25 26 28 31 34 36 38 40 41 42 42 42 42 43 43 43 44 44 43 43 42 42 41 41 42 41 41
6 6 6 7 8 9 10 11 13 15 17 20 22 24 24 24 25 25 26 29 32 35 37 39 41 42 42 42 43 43 43 44 44 45 44 44 43 42 42 42 41 41 41 41
7 7 8 9 9 11 11 12 13 16 18 20 22 24 24 25 25 25 28 31 34 36 39 40 41 42 42 43 43 44 45 45 45 45 45 44 43 42 42 41 40 40 40 40
7 8 10 11 12 12 13 14 15 18 20 21 23 24 25 26 27 28 30 33 36 38 39 41 41 41 42 43 44 45 45 45 45 45 45 44 43 42 41 40 39 39 39 39
9 10 12 13 14 14 13 15 17 19 21 22 23 24 25 26 28 30 32 34 37 39 40 40 41 41 42 43 44 45 45 45 45 45 44 43 42 41 40 39 39 39 38 37
13 14 15 15 17 17 18 19 21 22 23 23 24 25 26 27 28 30 33 35 38 39 39 40 41 41 42 43 44 46 45 45 46 45 44 43 42 41 40 39 39 38 37 36
18 19 20 20 21 22 22 22 22 23 23 24 24 25 27 28 30 32 34 36 38 39 39 40 41 41 42 44 45 46 46 46 46 46 44 43 42 41 40 39 38 37 36 35
22 22 23 23 23 22 22 23 22 22 22 23 24 26 27 29 31 33 35 37 38 38 39 40 41 42 43 44 46 46 46 46 46 45 44 43 41 40 40 39 37 36 34 34
22 24 25 25 24 23 23 23 22 22 22 24 25 26 28 29 31 34 36 37 38 38 39 40 41 42 43 44 46 46 46 46 46 45 44 42 40 40 40 37 36 34 33 32
21 24 25 25 24 24 24 24 25 25 25 26 28 29 30 31 34 35 37 38 38 38 39 41 42 43 44 45 46 46 46 45 45 45 43 41 40 40 38 37 35 33 32 30
21 24 25 25 24 25 25 25 26 27 28 29 30 31 32 34 36 37 38 39 39 39 40 41 43 43 44 45 46 46 46 45 44 44 42 40 39 39 38 36 34 32 31 29
Wind_Direction
21 30 24 8 285 249 247 260 263 252 241 238 245 253 259 263 262 263 268 270 273 278 283 287 288 289 290 291 292 293 293 294 294 293 293 292 292 291 291 291 290 290 289 288
345 339 326 307 306 285 274 271 285 276 266 260 265 266 273 271 264 262 261 262 265 276 285 288 289 291 293 295 296 296 296 296 295 295 294 293 293 292 291 290 289 288 288 287
347 332 325 321 304 304 300 282 290 302 292 287 292 286 283 280 273 266 263 262 263 276 286 292 295 297 298 298 298 298 297 296 296 295 295 294 293 293 292 291 290 289 287 286
352 344 344 331 319 320 326 312 312 322 325 316 303 301 301 296 298 280 270 278 280 285 296 301 303 305 305 303 301 300 299 298 298 297 296 295 294 293 293 292 291 289 288 286
10 6 12 6 355 351 354 348 346 337 332 331 314 311 305 303 308 307 297 295 313 311 312 312 311 309 307 305 303 303 301 300 299 298 297 296 295 294 293 292 290 289 287 286
23 21 26 17 3 356 354 357 0 357 357 358 355 354 12 348 341 331 334 344 344 330 325 322 319 316 314 312 311 309 307 306 305 304 302 300 299 297 296 294 292 290 288 287
14 18 22 20 12 1 350 350 350 359 7 21 23 31 43 45 37 19 358 348 339 331 328 326 326 324 322 320 318 317 315 314 312 310 308 306 304 301 299 297 295 293 290 288
358 348 353 9 13 6 353 345 346 350 352 2 11 22 24 22 12 358 350 343 340 337 334 333 332 329 327 325 323 322 320 318 316 314 312 309 307 305 302 300 298 295 292 290
346 341 341 346 344 351 350 346 348 345 339 340 350 357 359 3 359 352 347 344 343 340 338 336 333 331 329 327 325 324 321 319 317 315 313 311 308 306 304 302 299 296 293 290
336 331 319 326 323 334 342 345 346 341 336 336 338 338 347 358 356 351 347 345 343 340 338 336 333 331 329 327 325 324 323 321 319 316 314 312 309 307 305 302 299 296 293 290
327 325 317 313 318 323 339 340 341 339 335 334 333 337 346 352 351 349 347 345 340 337 335 333 331 329 328 327 326 325 323 321 319 318 316 314 312 309 307 304 300 297 294 291
317 315 313 320 331 338 344 343 340 340 336 336 336 340 346 350 349 347 344 339 333 331 330 329 329 329 328 327 326 325 323 322 321 319 317 315 314 311 308 306 302 299 296 293
315 316 316 319 329 340 342 337 338 341 339 339 340 343 347 350 347 342 336 332 329 329 329 329 328 328 327 327 326 326 325 324 323 322 320 318 316 313 311 308 305 303 300 297
316 316 315 313 319 322 325 325 329 331 333 338 343 345 347 345 341 336 332 329 329 328 328 327 327 327 327 328 328 328 327 326 325 323 321 320 318 315 313 310 307 305 303 301
319 319 319 316 314 312 314 316 318 322 330 337 340 342 340 336 333 332 330 328 327 327 327 326 326 327 329 330 330 329 328 328 327 325 323 321 319 317 314 312 310 308 306 304
324 326 318 309 304 302 305 308 313 320 329 335 337 336 332 329 329 330 329 326 325 326 326 327 328 329 330 331 331 330 330 329 328 327 325 323 321 319 317 315 313 312 310 308
316 329 328 320 310 307 300 306 312 317 324 329 329 328 326 325 327 327 325 325 326 327 327 328 329 330 331 331 331 331 331 330 330 329 327 325 323 322 320 318 316 315 313 311
304 316 324 323 317 312 311 311 312 316 320 322 323 324 324 324 325 327 327 327 328 328 329 330 330 331 331 332 332 332 332 332 331 330 328 327 325 324 323 322 320 319 317 315
304 317 322 323 320 318 320 318 315 315 319 322 322 322 323 324 326 328 328 328 328 328 329 330 331 331 332 333 333 333 333 333 332 331 330 328 327 327 326 324 323 322 321 318
296 309 316 318 317 319 323 318 318 318 321 320 320 322 323 324 325 326 326 326 327 328 329 330 331 332 333 333 333 334 334 333 333 332 331 330 330 329 328 327 326 325 324 323
305 309 314 318 319 320 321 323 323 323 323 321 321 322 322 322 323 324 324 326 327 328 329 330 331 333 333 334 334 335 335 335 335 334 333 332 332 332 331 330 329 328 327 327
300 306 312 315 315 316 317 320 322 321 319 317 318 319 320 321 322 322 323 325 326 328 329 331 332 333 333 334 335 335 336 336 336 336 334 334 334 334 334 333 332 331 331 331
291 298 301 303 306 311 313 316 317 315 313 313 315 317 318 319 320 321 323 325 326 328 329 330 331 332 333 334 335 336 337 337 337 337 336 336 335 336 336 335 335 335 334 335
287 293 295 299 305 309 310 311 311 310 310 311 314 316 318 319 320 322 323 325 326 327 328 329 330 332 333 334 335 336 337 337 338 338 338 338 338 338 338 338 338 338 338 338
286 286 290 296 302 304 306 308 309 309 311 313 314 316 318 319 321 322 323 324 325 326 327 329 330 332 333 334 335 336 337 337 338 339 339 339 339 340 341 341 341 341 341 341
283 285 290 295 298 300 303 304 306 308 310 311 313 315 317 318 320 320 321 323 324 325 326 328 329 331 332 334 335 336 336 337 339 339 339 340 341 342 342 343 343 343 343 344
Height
5873 5873 5872 5871 5871 5871 5870 5870 5870 5870 5870 5870 5870 5870 5870 5869 5869 5870 5870 5870 5869 5868 5867 5865 5863 5861 5859 5857 5855 5853 5851 5848 5846 5843 5840 5836 5833 5831 5828 5825 5823 5820 5818 5815
5874 5872 5871 5870 5869 5869 5868 5868 5868 5867 5867 5868 5868 5867 5866 5865 5864 5864 5864 5865 5865 5864 5863 5862 5860 5857 5855 5852 5850 5847 5845 5842 5839 5835 5832 5829 5825 5822 5819 5816 5813 5810 5808 5806
5872 5872 5870 5869 5868 5867 5867 5867 5867 5866 5866 5866 5865 5863 5862 5860 5860 5859 5860 5861 5861 5860 5859 5858 5856 5854 5851 5848 5845 5842 5839 5835 5832 5828 5824 5820 5816 5812 5808 5805 5802 5799 5797 5795
5872 5871 5870 5869 5868 5867 5866 5866 5865 5864 5863 5863 5862 5860 5859 5857 5857 5857 5858 5857 5857 5857 5856 5855 5852 5850 5847 5844 5840 5837 5833 5829 5824 5820 5816 5812 5807 5803 5799 5795 5791 5788 5785 5783
5872 5871 5870 5869 5867 5866 5866 5865 5863 5862 5862 5861 5859 5859 5859 5857 5856 5856 5855 5854 5853 5853 5852 5851 5848 5845 5842 5839 5835 5831 5827 5822 5817 5812 5808 5803 5798 5793 5789 5784 5781 5777 5774 5771
5872 5871 5870 5868 5867 5866 5865 5864 5863 5862 5862 5860 5858 5857 5856 5855 5855 5854 5854 5852 5851 5850 5848 5846 5843 5840 5837 5832 5828 5824 5819 5814 5809 5803 5798 5793 5788 5783 5778 5774 5770 5766 5763 5760
5873 5871 5870 5868 5867 5866 5864 5864 5864 5863 5861 5860 5858 5855 5855 5855 5854 5853 5852 5850 5849 5847 5844 5842 5838 5834 5830 5825 5821 5816 5810 5804 5799 5793 5788 5782 5777 5772 5768 5763 5759 5755 5752 5749
5872 5871 5869 5867 5866 5865 5864 5864 5863 5862 5860 5859 5857 5855 5855 5854 5853 5851 5850 5848 5845 5842 5839 5835 5832 5827 5823 5818 5812 5807 5801 5795 5789 5784 5778 5772 5767 5762 5757 5753 5748 5745 5741 5738
5871 5870 5868 5867 5866 5865 5864 5862 5861 5860 5858 5857 5855 5854 5853 5852 5850 5848 5846 5843 5840 5837 5833 5829 5825 5821 5816 5810 5805 5799 5793 5787 5781 5775 5769 5763 5757 5752 5747 5742 5738 5734 5730 5727
5870 5869 5868 5866 5866 5864 5863 5861 5860 5859 5856 5855 5853 5852 5851 5849 5847 5844 5841 5838 5835 5832 5828 5824 5819 5815 5809 5804 5797 5791 5784 5778 5772 5766 5760 5754 5748 5743 5737 5732 5727 5723 5719 5715
5868 5868 5867 5865 5864 5863 5862 5861 5858 5856 5854 5853 5851 5852 5848 5846 5843 5840 5837 5834 5830 5827 5823 5819 5815 5810 5804 5797 5790 5783 5776 5770 5763 5757 5750 5744 5738 5733 5727 5721 5716 5711 5707 5702
5866 5866 5864 5863 5862 5861 5860 5858 5857 5855 5853 5851 5849 5850 5844 5842 5839 5836 5833 5830 5827 5824 5820 5815 5810 5804 5798 5791 5784 5777 5769 5762 5755 5748 5742 5735 5729 5722 5716 5710 5704 5698 5694 5689
5865 5864 5863 5862 5862 5860 5858 5856 5854 5853 5851 5848 5846 5847 5841 5839 5836 5834 5831 5828 5824 5820 5815 5810 5804 5798 5792 5785 5777 5770 5762 5755 5747 5740 5733 5726 5719 5712 5705 5698 5692 5686 5681 5676
5863 5862 5862 5861 5859 5857 5856 5854 5852 5851 5849 5847 5845 5843 5839 5837 5834 5832 5828 5824 5820 5815 5810 5805 5799 5793 5786 5778 5770 5762 5755 5747 5739 5732 5724 5717 5709 5702 5694 5687 5681 5674 5668 5663
5861 5860 5859 5858 5857 5855 5854 5852 5851 5849 5847 5845 5842 5840 5838 5835 5832 5829 5825 5820 5816 5811 5806 5800 5793 5786 5779 5771 5763 5755 5747 5739 5731 5723 5715 5707 5699 5692 5684 5677 5670 5663 5656 5649
5859 5858 5857 5856 5855 5853 5852 5851 5849 5847 5844 5842 5840 5838 5835 5832 5829 5825 5821 5816 5812 5806 5801 5794 5787 5780 5772 5764 5756 5748 5740 5731 5723 5715 5706 5698 5690 5682 5674 5666 5659 5652 5644 5637
5856 5856 5855 5854 5852 5851 5851 5849 5847 5845 5843 5841 5838 5836 5832 5828 5825 5822 5818 5813 5807 5801 5795 5788 5781 5773 5765 5757 5749 5741 5732 5724 5715 5706 5698 5689 5681 5673 5664 5656 5648 5640 5633 5625
5854 5853 5852 5851 5851 5849 5850 5846 5844 5842 5840 5838 5835 5832 5828 5824 5821 5818 5813 5807 5802 5796 5789 5782 5774 5767 5759 5751 5742 5733 5725 5716 5707 5698 5690 5681 5672 5664 5655 5647 5638 5630 5622 5614
5852 5851 5850 5849 5847 5846 5845 5843 5841 5839 5836 5834 5831 5827 5823 5819 5815 5812 5807 5802 5796 5790 5783 5776 5768 5760 5752 5744 5735 5727 5718 5709 5700 5691 5682 5673 5664 5655 5646 5638 5629 5621 5612 5603
5849 5848 5847 5845 5844 5843 5843 5840 5837 5836 5832 5830 5826 5822 5819 5815 5811 5807 5802 5796 5790 5783 5777 5769 5762 5754 5746 5738 5729 5720 5711 5702 5693 5684 5674 5665 5656 5647 5638 5629 5620 5612 5603 5594
5845 5844 5843 5842 5840 5838 5837 5835 5833 5831 5828 5824 5821 5817 5814 5810 5807 5802 5796 5790 5784 5777 5771 5763 5755 5748 5740 5731 5723 5714 5704 5695 5686 5676 5667 5657 5648 5639 5630 5622 5613 5604 5595 5586
5840 5839 5838 5837 5835 5836 5832 5830 5828 5826 5822 5819 5815 5812 5808 5805 5800 5796 5790 5785 5778 5772 5764 5757 5749 5741 5733 5725 5716 5707 5698 5688 5679 5669 5660 5650 5641 5632 5623 5614 5605 5596 5588 5579
5836 5836 5834 5833 5833 5830 5827 5825 5823 5820 5817 5814 5810 5807 5803 5799 5795 5790 5785 5779 5772 5765 5758 5751 5743 5735 5727 5719 5710 5701 5692 5682 5673 5663 5653 5644 5635 5626 5617 5608 5599 5590 5582 5573
5833 5831 5829 5827 5826 5824 5822 5820 5818 5815 5812 5808 5805 5802 5798 5794 5789 5784 5778 5772 5766 5759 5752 5745 5737 5729 5721 5713 5704 5695 5686 5676 5667 5657 5648 5639 5630 5621 5611 5602 5594 5585 5577 5569
5828 5825 5823 5821 5820 5818 5816 5813 5810 5808 5805 5802 5798 5795 5791 5787 5782 5777 5772 5765 5759 5752 5745 5738 5731 5723 5715 5707 5698 5689 5680 5671 5661 5652 5643 5634 5625 5616 5607 5598 5589 5581 5573 5565
5822 5819 5817 5816 5814 5812 5809 5806 5804 5801 5798 5795 5792 5788 5784 5780 5775 5770 5764 5758 5752 5745 5739 5732 5724 5717 5709 5701 5692 5683 5675 5666 5657 5647 5638 5629 5621 5612 5603 5594 5586 5577 5570 5562